Temperature
22 22 22 22 22 22 21 21 20 21 21 21 21 21 21 20 19 19 18 17 17 16 16 15 15 14 14 14 14 14 14 14 14 14 13 13 13 13 13 13 13 13 13 13
21 22 22 21 21 21 21 21 21 21 20 21 21 21 20 20 19 18 18 17 16 16 15 15 14 14 14 14 14 13 13 13 13 13 13 13 13 13 13 13 13 13 13 13
20 21 21 20 21 21 21 21 21 20 20 21 20 20 19 19 18 17 17 16 16 15 15 14 14 14 13 13 13 13 13 13 13 13 13 13 12 12 12 12 12 12 12 12
19 19 19 20 22 22 21 21 21 21 20 20 20 19 18 18 17 17 16 16 15 15 14 14 14 13 13 13 13 12 12 12 12 12 12 12 12 12 12 12 12 12 12 12
18 18 19 20 21 21 20 20 20 20 20 20 19 18 18 17 17 16 16 15 15 14 14 14 13 13 13 12 12 12 12 12 12 12 12 11 11 11 11 11 11 11 11 11
18 17 18 19 20 20 19 18 19 19 19 19 18 17 17 17 16 16 15 15 14 14 13 13 13 12 12 12 12 12 12 11 11 11 11 11 11 11 11 11 10 11 11 10
17 17 18 19 19 19 18 17 18 18 18 18 17 16 16 16 15 15 14 14 13 13 13 12 12 12 12 12 12 11 11 11 11 11 11 10 10 10 10 10 10 10 10 10
18 17 17 18 18 18 18 18 18 17 17 17 16 16 15 15 14 14 13 13 13 12 12 12 12 11 11 11 11 11 11 11 10 10 10 10 10 10 10 9 9 9 9 9
18 17 18 18 18 18 17 17 17 16 16 16 15 15 14 14 13 13 13 12 12 12 11 11 11 11 11 10 10 10 10 10 10 10 10 10 9 9 9 9 9 9 9 9
17 18 18 18 17 17 16 16 16 15 15 15 14 14 13 13 13 12 12 12 11 11 11 10 10 10 10 10 10 10 10 10 10 10 9 9 9 9 9 9 9 8 8 8
16 17 17 17 16 16 15 15 15 15 14 14 14 13 13 12 12 11 11 11 11 10 10 10 10 10 9 9 9 9 9 9 9 9 9 9 9 9 9 9 8 8 8 8
16 16 16 16 16 15 15 14 14 14 13 13 13 13 12 12 11 11 11 10 10 10 10 9 9 9 9 9 9 9 9 9 9 8 8 8 8 8 8 8 8 8 8 8
16 16 15 15 15 14 14 14 13 13 13 13 12 12 12 11 11 10 10 10 10 9 9 9 9 9 8 9 9 9 8 8 8 8 8 8 8 8 8 8 8 7 7 7
15 15 14 14 14 14 13 13 13 13 12 12 12 11 11 11 10 10 9 9 9 9 8 8 8 8 8 8 8 8 8 8 8 8 8 8 8 7 7 7 7 7 7 7
14 14 14 14 13 13 13 12 12 12 12 11 11 11 10 10 10 9 9 9 8 8 8 8 8 8 7 8 8 8 8 7 7 7 7 7 7 7 7 7 7 7 7 7
13 13 13 13 13 12 12 12 11 11 11 11 10 10 10 9 9 9 8 8 8 8 8 7 7 7 7 7 7 7 7 7 7 7 7 7 7 7 6 6 6 6 6 6
13 13 12 12 12 12 11 11 11 11 10 10 9 9 9 8 8 8 8 7 7 7 7 7 7 7 7 7 7 7 7 7 7 7 7 6 6 6 6 6 6 6 6 6
12 12 12 12 12 11 11 11 10 10 10 9 9 9 8 8 7 7 7 7 7 7 7 7 7 7 6 6 6 6 6 6 6 6 6 6 6 6 6 6 5 5 5 5
11 11 11 11 11 10 10 10 10 9 9 9 8 8 8 7 7 7 6 6 6 6 6 6 6 6 6 6 6 6 6 6 6 5 5 5 5 5 5 5 5 5 5 5
10 10 10 10 10 10 9 9 9 9 8 8 8 7 7 7 7 6 6 6 6 6 6 6 6 6 6 5 5 5 5 5 5 5 5 5 5 5 4 4 4 4 4 4
10 10 10 9 9 9 9 9 9 8 8 8 7 7 7 7 6 6 6 6 6 6 6 6 5 5 5 5 5 5 5 4 4 4 4 4 4 4 4 4 4 4 4 4
9 9 9 9 9 9 8 8 8 8 7 7 7 7 6 6 6 6 5 5 5 5 5 5 5 5 5 4 4 4 4 4 4 3 3 3 3 4 3 3 3 3 3 3
9 9 8 8 8 8 8 8 7 7 7 7 6 6 6 6 5 5 5 5 5 5 5 5 5 4 4 4 4 3 3 3 3 3 3 3 3 3 3 3 3 3 3 3
8 8 8 7 7 7 7 7 7 7 6 6 6 6 5 5 5 5 5 5 5 5 4 4 4 4 4 4 3 3 3 3 3 3 3 3 3 3 3 3 3 3 3 2
7 7 7 7 7 6 6 6 6 6 6 5 5 5 5 5 5 5 4 4 4 4 4 4 4 3 3 3 3 3 3 3 2 2 2 2 2 2 2 2 2 2 2 2
6 6 6 6 6 6 6 6 6 5 5 5 5 5 5 4 4 4 4 4 4 4 3 3 3 3 3 3 3 3 2 2 2 2 2 2 2 2 2 2 2 2 2 2
6 6 6 6 6 5 5 5 5 5 5 5 5 4 4 4 4 4 3 3 3 3 3 3 3 3 3 3 2 2 2 2 2 2 2 2 2 2 2 2 1 1 1 1
Wind_Speed
11 9 9 10 11 10 10 10 9 8 7 4 1 1 2 1 2 3 3 3 3 3 2 2 2 1 1 1 1 1 1 2 2 1 1 1 1 1 0 1 1 1 0 0
11 11 10 12 12 11 11 10 10 9 8 3 2 2 1 1 2 1 1 2 2 2 2 2 2 2 1 1 0 1 2 2 1 2 1 1 1 0 0 1 1 1 1 1
9 10 10 10 8 8 8 8 8 8 3 1 2 1 2 2 2 1 0 0 1 2 1 2 3 2 2 1 1 1 2 2 2 2 2 2 1 0 1 1 1 1 1 1
8 9 10 4 1 1 4 5 4 3 1 0 1 1 2 2 1 1 1 1 0 0 0 0 1 1 2 2 1 1 1 2 2 2 2 2 1 1 1 0 0 0 1 1
6 8 8 5 2 1 3 5 3 3 1 1 2 1 1 2 2 2 1 1 1 0 1 1 0 1 1 2 2 1 1 2 2 2 2 2 2 1 1 1 1 1 1 1
6 7 7 2 2 2 2 3 1 2 2 2 1 2 1 3 3 3 2 2 1 1 1 1 1 1 2 2 2 2 1 1 2 2 2 2 2 2 1 1 1 1 2 1
9 9 7 1 1 1 2 1 4 4 4 2 2 2 2 3 3 3 2 2 2 2 1 1 1 1 1 1 1 1 1 1 2 2 2 2 1 1 1 1 1 1 2 2
7 8 5 1 0 1 2 4 4 4 4 4 3 3 2 2 2 2 2 2 2 1 1 1 1 1 0 0 1 1 1 1 1 2 2 1 1 1 1 1 1 2 2 2
3 3 1 2 1 2 4 3 4 4 5 3 2 1 1 1 1 1 1 1 1 1 1 0 0 1 0 0 1 1 1 1 2 2 1 1 1 1 1 1 1 2 1 2
5 4 2 1 1 1 2 3 4 4 4 2 1 1 1 1 0 0 0 1 1 1 0 0 0 0 0 0 1 1 1 1 1 1 1 1 1 1 1 2 2 2 2 2
7 6 4 2 1 1 1 2 3 4 3 2 2 1 1 1 1 1 1 0 1 1 1 0 1 1 1 1 0 1 1 1 1 1 1 0 0 1 2 2 2 3 3 2
7 5 5 4 2 1 2 2 2 3 3 3 2 1 1 1 1 1 1 0 1 1 1 0 1 1 1 1 1 1 1 1 1 1 1 1 1 1 1 2 2 3 2 2
6 5 5 5 3 2 2 3 3 2 3 3 2 1 1 1 1 1 1 1 0 1 0 0 0 0 1 1 1 0 1 1 1 1 1 1 2 2 1 1 1 2 2 2
5 4 5 4 3 3 3 3 2 3 2 2 2 1 1 1 0 1 1 0 0 1 0 0 0 0 1 1 1 1 1 1 1 1 2 2 2 2 2 2 1 1 2 3
6 5 5 3 3 3 3 2 2 2 2 2 1 1 0 0 0 1 1 0 1 1 1 0 1 0 1 1 1 1 2 2 1 1 2 2 2 2 2 2 2 2 1 1
5 4 4 4 4 3 3 3 3 3 2 1 1 1 0 0 1 0 0 0 1 1 0 0 0 0 1 1 1 1 1 2 2 2 2 2 2 1 2 2 2 2 2 2
6 6 5 5 4 4 4 3 3 2 2 2 1 1 0 0 0 0 0 0 0 1 0 0 1 1 1 2 2 1 1 2 3 2 2 2 1 2 2 2 2 2 2 2
5 5 5 5 4 3 3 3 2 2 2 2 1 1 1 2 2 1 1 1 1 0 0 1 1 1 1 2 2 1 1 1 1 2 2 2 2 2 2 2 3 3 2 2
4 4 4 3 2 3 3 2 2 2 2 2 2 2 2 2 1 1 1 1 1 1 0 1 1 1 1 1 2 1 2 2 2 2 1 2 2 2 2 2 3 3 2 2
2 2 2 2 2 2 2 2 2 2 2 2 2 2 2 1 1 1 0 1 1 1 1 0 1 1 1 1 2 2 2 2 2 2 2 2 2 2 2 3 3 3 2 2
2 2 2 2 2 2 2 2 2 2 2 2 2 2 1 1 1 1 2 1 1 0 1 0 1 1 2 2 2 2 2 2 2 2 2 2 2 3 3 3 3 3 3 3
2 1 1 1 1 2 2 1 1 1 1 1 2 2 1 1 1 1 2 1 1 1 0 0 0 1 3 3 2 2 3 3 2 2 2 2 3 3 3 3 3 3 3 3
2 2 1 1 2 2 1 1 1 1 1 1 1 2 1 1 1 1 2 0 0 0 0 1 2 3 4 3 2 2 3 2 2 3 3 3 3 3 3 3 3 3 2 3
2 2 2 2 2 1 2 1 1 1 1 1 1 1 1 1 1 1 1 1 1 1 1 2 3 4 5 3 2 3 3 3 3 3 3 3 3 3 3 3 3 3 3 3
2 3 3 2 2 2 2 1 1 1 1 1 1 1 1 1 1 1 1 1 2 2 2 3 5 5 4 3 3 3 3 3 3 3 3 3 3 3 3 3 3 3 3 3
3 2 2 3 2 2 2 2 2 1 1 1 1 1 0 0 0 0 1 1 2 3 2 2 3 4 3 3 3 3 3 3 3 3 3 3 3 3 3 3 4 4 4 4
3 3 2 2 2 2 2 1 2 2 2 1 1 1 1 1 1 1 2 2 2 2 2 2 2 3 3 3 3 3 3 3 3 3 3 3 3 3 3 4 4 4 4 4
Wind_Direction
282 286 288 281 270 258 254 257 262 269 278 286 258 139 134 135 145 147 150 156 156 162 169 165 158 157 125 115 115 143 149 165 182 170 138 123 111 111 270 301 285 295 317 144
280 273 269 268 266 259 252 256 258 263 268 299 338 46 63 111 118 143 163 170 170 182 180 185 192 179 168 132 166 171 150 144 143 141 134 130 125 120 16 327 314 338 326 91
278 283 279 263 256 252 256 251 249 259 269 349 336 23 32 58 97 96 54 102 184 192 199 212 201 186 169 165 184 177 152 150 140 140 137 127 127 76 286 261 306 286 291 154
276 278 261 267 349 260 264 275 281 279 339 12 351 28 72 63 78 68 36 19 30 111 149 257 163 158 149 151 173 158 134 139 146 149 152 150 147 169 284 295 297 299 296 186
265 272 273 266 274 261 259 270 289 288 302 19 45 352 43 63 66 58 50 42 52 149 130 121 134 138 160 176 181 170 171 153 145 150 149 149 167 200 236 233 250 267 269 213
261 272 271 288 65 36 304 257 56 9 357 7 343 285 348 52 58 58 60 69 66 63 66 86 91 124 177 189 187 193 189 165 155 159 160 170 198 218 221 219 245 249 257 223
250 259 265 328 17 285 259 24 50 20 1 350 313 327 24 38 46 54 51 52 54 66 51 32 81 129 205 187 194 192 159 159 166 180 185 192 216 244 219 212 243 244 242 235
241 249 251 86 207 296 14 40 32 15 2 355 358 21 23 37 47 50 50 60 62 68 70 60 73 139 217 252 129 115 133 163 181 184 198 176 177 246 245 217 237 241 239 237
258 263 58 100 26 26 17 10 7 1 351 358 360 22 13 23 33 27 25 86 81 76 77 97 102 105 227 271 117 131 184 213 213 205 199 176 183 214 235 224 231 240 230 234
272 269 281 281 303 7 347 341 354 347 331 325 315 320 328 306 304 315 283 133 114 108 207 192 53 55 277 12 124 184 212 221 226 208 208 201 192 206 216 218 221 226 230 235
272 277 291 282 285 299 325 330 328 331 330 325 308 282 275 271 260 248 254 169 151 185 218 177 56 52 11 349 81 231 230 229 236 199 209 227 213 243 224 230 210 213 221 218
265 283 291 299 326 316 305 301 314 319 316 310 305 272 272 276 274 271 263 206 173 160 152 163 98 75 354 302 253 229 256 276 271 237 223 205 235 287 287 227 202 207 210 207
285 301 303 306 324 330 307 300 302 295 296 303 305 281 269 274 269 264 262 244 187 123 77 323 98 82 307 300 297 266 267 274 278 265 250 226 230 227 251 317 305 247 235 221
290 289 281 278 287 291 283 280 296 306 306 304 303 299 304 308 313 251 250 252 99 134 140 2 338 290 303 324 330 309 293 287 273 246 251 241 232 227 217 220 252 279 261 233
274 272 272 275 270 274 282 283 281 287 299 306 319 318 15 1 277 260 260 146 156 196 180 184 258 283 345 349 297 276 273 265 249 250 255 242 234 229 224 221 226 230 225 228
274 267 257 255 258 257 265 269 268 273 285 292 295 300 1 354 316 316 73 106 180 250 266 157 328 15 8 321 305 286 274 280 285 268 260 250 242 242 238 233 232 224 228 222
251 248 247 246 246 249 255 259 270 274 284 284 283 297 181 197 225 9 115 190 220 264 283 60 30 1 332 316 306 290 285 281 283 284 265 254 248 244 254 246 239 236 231 216
255 257 259 257 256 253 261 270 277 275 270 272 258 212 214 219 215 213 211 198 196 242 145 93 45 332 311 316 318 304 282 262 263 266 266 258 261 250 249 249 239 239 241 227
261 260 265 267 272 273 269 265 269 268 259 241 223 220 227 227 215 193 208 218 218 246 254 69 347 322 318 317 326 311 301 284 273 271 274 276 269 259 248 254 250 241 232 217
252 255 261 273 272 270 273 270 267 251 235 214 211 222 228 211 173 163 215 254 245 224 100 18 327 322 325 312 327 304 295 286 280 276 274 270 270 273 264 258 257 248 241 232
240 236 245 256 263 265 265 257 242 233 219 197 205 215 217 205 184 202 220 241 267 105 130 242 306 311 323 319 308 294 289 285 278 277 275 272 271 274 274 271 264 251 243 247
259 248 251 261 260 273 279 261 236 226 211 197 202 204 200 214 224 236 237 217 206 178 155 256 299 311 324 323 296 291 289 286 282 281 276 271 269 272 275 277 271 259 248 246
306 301 297 289 283 293 318 309 255 230 220 213 215 214 215 226 228 230 252 230 143 192 331 267 285 299 309 306 290 290 291 291 288 285 278 272 269 270 273 277 275 268 263 262
303 303 302 295 293 286 275 278 277 260 241 235 218 217 222 228 247 252 218 192 212 256 263 242 262 280 289 280 277 283 286 286 286 288 291 291 289 283 277 274 273 270 267 270
276 277 277 273 265 258 254 256 262 247 233 233 237 233 244 233 226 213 201 221 234 258 268 249 257 269 275 270 273 281 288 288 293 298 298 297 294 292 287 283 282 279 273 269
285 273 267 265 262 257 251 235 231 226 222 227 242 250 289 321 284 187 211 226 238 256 265 260 254 258 261 265 271 277 282 290 296 298 292 291 293 293 288 285 289 286 282 281
274 270 256 244 243 237 237 232 234 244 245 238 246 256 267 272 263 256 258 253 251 255 261 262 259 260 264 268 270 271 274 279 283 287 291 291 291 285 282 284 284 285 285 284
Height
1481 1478 1479 1481 1482 1482 1485 1485 1491 1488 1487 1484 1483 1485 1486 1488 1490 1492 1494 1495 1497 1498 1499 1500 1501 1502 1502 1502 1503 1503 1504 1504 1505 1506 1507 1508 1508 1509 1510 1511 1512 1512 1513 1513
1483 1478 1478 1480 1478 1478 1479 1480 1482 1484 1484 1480 1481 1483 1485 1487 1489 1491 1492 1493 1495 1496 1497 1498 1499 1499 1500 1500 1501 1501 1501 1502 1502 1503 1504 1505 1506 1506 1507 1508 1509 1510 1510 1511
1488 1479 1478 1482 1474 1475 1476 1475 1478 1483 1482 1480 1481 1483 1485 1486 1488 1490 1491 1492 1493 1494 1495 1496 1497 1497 1498 1498 1498 1499 1499 1499 1500 1501 1501 1502 1503 1503 1504 1505 1506 1507 1507 1507
1488 1487 1492 1478 1468 1469 1473 1474 1473 1475 1477 1479 1481 1483 1484 1486 1487 1488 1489 1490 1491 1492 1492 1493 1494 1495 1495 1496 1496 1496 1497 1497 1498 1498 1499 1499 1500 1501 1501 1502 1503 1504 1504 1505
1490 1490 1483 1474 1470 1470 1475 1476 1474 1475 1477 1478 1480 1482 1484 1485 1486 1487 1488 1489 1490 1490 1491 1491 1492 1492 1493 1493 1494 1494 1495 1495 1496 1496 1497 1497 1498 1498 1499 1500 1500 1501 1501 1502
1489 1492 1490 1478 1472 1471 1474 1479 1475 1475 1477 1478 1480 1484 1485 1485 1485 1486 1487 1487 1488 1488 1489 1489 1490 1490 1490 1491 1492 1492 1492 1493 1493 1494 1495 1495 1496 1496 1497 1497 1497 1498 1498 1499
1488 1489 1481 1474 1473 1473 1483 1482 1477 1477 1478 1479 1480 1482 1483 1483 1484 1485 1485 1486 1486 1486 1487 1487 1487 1487 1488 1488 1489 1489 1490 1490 1491 1492 1492 1493 1493 1494 1494 1494 1495 1495 1495 1496
1482 1486 1484 1474 1474 1477 1478 1476 1477 1477 1478 1479 1479 1480 1481 1481 1482 1483 1483 1484 1484 1485 1485 1485 1485 1485 1485 1485 1487 1487 1487 1487 1488 1489 1490 1490 1490 1490 1491 1491 1492 1492 1492 1493
1476 1479 1474 1473 1474 1475 1476 1477 1477 1477 1478 1478 1479 1479 1480 1480 1481 1481 1482 1482 1482 1482 1483 1483 1483 1483 1483 1484 1484 1484 1485 1485 1486 1487 1487 1487 1487 1488 1488 1488 1488 1489 1489 1489
1472 1471 1472 1473 1474 1475 1476 1476 1477 1477 1477 1477 1477 1478 1478 1479 1479 1479 1480 1480 1480 1480 1480 1480 1481 1481 1481 1482 1482 1482 1482 1483 1483 1484 1484 1484 1485 1485 1485 1485 1485 1485 1485 1486
1472 1471 1471 1472 1473 1473 1474 1475 1475 1476 1476 1476 1476 1476 1476 1477 1477 1477 1477 1477 1478 1478 1478 1478 1478 1478 1479 1479 1479 1480 1480 1480 1481 1481 1481 1481 1481 1481 1481 1481 1482 1482 1482 1483
1471 1470 1471 1471 1471 1472 1472 1473 1474 1474 1474 1474 1474 1473 1474 1474 1474 1475 1475 1475 1475 1476 1475 1476 1476 1476 1476 1476 1477 1478 1478 1478 1478 1478 1478 1477 1477 1478 1478 1479 1479 1479 1479 1480
1468 1468 1469 1469 1470 1470 1471 1471 1472 1472 1472 1472 1472 1471 1471 1471 1471 1472 1472 1473 1473 1473 1473 1473 1473 1473 1473 1474 1474 1475 1475 1475 1475 1475 1474 1474 1474 1474 1474 1475 1476 1476 1476 1476
1466 1466 1467 1468 1469 1469 1469 1469 1470 1470 1470 1469 1469 1469 1468 1468 1468 1469 1469 1470 1470 1470 1470 1470 1470 1471 1471 1471 1471 1471 1471 1472 1472 1471 1471 1471 1471 1471 1471 1471 1471 1471 1472 1472
1464 1464 1464 1465 1466 1467 1467 1467 1467 1467 1467 1467 1466 1466 1466 1466 1466 1466 1467 1467 1467 1468 1468 1468 1468 1468 1468 1468 1468 1468 1468 1468 1468 1468 1467 1468 1468 1468 1468 1468 1468 1468 1468 1469
1461 1461 1462 1463 1463 1464 1464 1464 1464 1464 1464 1464 1464 1464 1464 1464 1464 1463 1464 1464 1465 1465 1465 1465 1465 1465 1465 1465 1465 1465 1464 1464 1464 1464 1464 1464 1464 1464 1464 1465 1465 1465 1465 1465
1458 1458 1459 1460 1460 1461 1461 1461 1462 1462 1461 1461 1461 1461 1461 1461 1461 1461 1461 1462 1462 1462 1462 1462 1462 1462 1462 1462 1462 1461 1461 1461 1461 1461 1461 1460 1460 1461 1461 1461 1461 1460 1461 1461
1454 1455 1456 1456 1457 1457 1458 1458 1459 1459 1459 1458 1458 1458 1458 1458 1458 1458 1459 1459 1459 1460 1460 1460 1460 1460 1459 1459 1459 1458 1458 1458 1458 1457 1457 1457 1457 1457 1457 1456 1456 1457 1457 1457
1451 1452 1453 1453 1454 1455 1455 1455 1455 1455 1455 1455 1455 1455 1455 1456 1456 1456 1456 1456 1457 1457 1457 1457 1457 1457 1456 1456 1455 1455 1455 1454 1454 1454 1453 1453 1453 1453 1453 1452 1452 1452 1452 1452
1449 1449 1450 1450 1451 1452 1452 1452 1452 1452 1452 1452 1452 1452 1453 1453 1453 1453 1453 1454 1454 1454 1454 1454 1454 1453 1453 1453 1452 1451 1451 1451 1450 1450 1450 1449 1449 1448 1448 1448 1448 1448 1448 1448
1447 1447 1448 1448 1449 1449 1449 1449 1449 1449 1449 1449 1449 1449 1450 1450 1450 1451 1451 1451 1451 1451 1451 1451 1450 1450 1449 1449 1448 1448 1447 1447 1447 1446 1446 1445 1445 1445 1444 1444 1444 1444 1444 1443
1445 1446 1446 1446 1446 1446 1446 1446 1446 1446 1446 1446 1447 1447 1447 1447 1448 1448 1448 1448 1448 1448 1448 1447 1447 1447 1446 1445 1445 1444 1444 1443 1443 1442 1442 1441 1441 1440 1440 1440 1440 1439 1439 1439
1444 1444 1444 1444 1444 1444 1444 1444 1444 1444 1444 1444 1444 1444 1444 1445 1445 1445 1445 1445 1445 1445 1445 1444 1444 1443 1443 1442 1441 1441 1440 1440 1439 1439 1438 1437 1437 1436 1436 1435 1435 1435 1435 1434
1442 1442 1442 1442 1442 1442 1441 1441 1441 1441 1441 1441 1441 1442 1442 1442 1442 1442 1442 1442 1442 1442 1442 1441 1441 1440 1439 1439 1438 1437 1437 1436 1436 1435 1434 1433 1433 1432 1432 1431 1430 1430 1430 1430
1440 1440 1440 1440 1439 1439 1439 1439 1439 1439 1439 1439 1439 1439 1439 1439 1439 1439 1439 1439 1439 1438 1438 1437 1437 1437 1436 1435 1435 1434 1433 1433 1432 1431 1430 1430 1429 1428 1427 1427 1426 1426 1425 1424
1437 1437 1437 1437 1436 1436 1436 1436 1436 1436 1436 1436 1436 1436 1436 1436 1436 1436 1436 1435 1435 1435 1434 1434 1434 1433 1432 1432 1431 1431 1430 1429 1428 1428 1427 1426 1425 1424 1423 1422 1422 1421 1420 1419
1434 1434 1434 1434 1433 1433 1433 1433 1433 1433 1433 1433 1433 1433 1433 1433 1433 1433 1432 1432 1431 1431 1431 1431 1430 1430 1429 1428 1428 1427 1427 1426 1425 1424 1423 1422 1421 1420 1419 1418 1417 1417 1416 1415